Regional Weather Roundup
Issued by NWS

Home | Current Version | Previous Version | Graphics & Text | Print | Product List | Glossary On
Versions: 1 2 3 4 5 6 7 8 9 10 11 12 13 14 15 16 17 18 19 20 21 22 23 24 25 26 27 28 29 30 31 32 33 34 35 36 37 38 39 40 41 42 43 44 45 46 47 48 49 50
000
ASUS43 KLOT 271903
RWRIL

ILLINOIS REGIONAL WEATHER ROUNDUP
NATIONAL WEATHER SERVICE CHICAGO/ROMEOVILLE IL
200 PM CDT TUE JUN 27 2017

NOTE: "FAIR" INDICATES FEW OR NO CLOUDS BELOW 12,000 FEET WITH NO
SIGNIFICANT WEATHER AND/OR OBSTRUCTIONS TO VISIBILITY.

* THESE STATIONS ARE NOT UNDER NWS QUALITY CONTROL. THEY ALSO MAY NOT
  REPORT WEATHER SUCH AS PRECIPITATION OR FOG.

ILZ001-002-007-009-015-016-024-272000-
NORTHWEST ILLINOIS

CITY           SKY/WX    TMP DP  RH WIND       PRES   REMARKS
MOLINE         SUNNY     74  44  34 S6        30.10F
STERLING*      SUNNY     74  47  38 VRB5      30.10F
SAVANNA*       SUNNY     73  45  36 S3        30.10S
$$

ILZ003-004-008-010-011-017-018-272000-
NORTH CENTRAL ILLINOIS

CITY           SKY/WX    TMP DP  RH WIND       PRES   REMARKS
ROCKFORD       PTSUNNY   75  46  35 VRB3      30.10F
FREEPORT*      SUNNY     72  46  38 SW6G17    30.11F
ROCHELLE*      MOSUNNY   72  47  41 N5        30.10F
DE KALB*       MOSUNNY   73  46  38 SW5       30.10F
PERU*          SUNNY     71  45  39 CALM      30.11F
$$

ILZ005-006-012>014-019>023-272000-
NORTHEAST ILLINOIS

CITY           SKY/WX    TMP DP  RH WIND       PRES   REMARKS
CHICAGO-OHARE  MOSUNNY   76  43  30 VRB6      30.09F
CHICAGO-MIDWAY MOSUNNY   73  44  35 W6        30.09F
AURORA         MOSUNNY   74  44  34 NW8       30.10F
LANSING*       PTSUNNY   74  44  33 W6        30.11F
JOLIET*        MOSUNNY   76  46  33 W6        30.10F
WAUKEGAN       MOSUNNY   74  49  41 NW8       30.08F
DUPAGE AIRPORT SUNNY     73  44  35 MISG      30.08F
WHEELING       MOSUNNY   74  47  38 NW7       30.10F
MORRIS*        MOSUNNY   74  42  32 SW7       30.09F
ROMEOVILLE*    MOSUNNY   75  41  29 N8        30.10F
$$

LMZ740>746-272000-
SOUTHERN LAKE MICHIGAN

STATION/POSITION SKY/WX   TEMP    WIND        PRES    VSBY  WAVE
                          AIR SEA DIR/SP/G                  HT/PER
                          (F)     (DEG/KT/KT) (MB)    (MI)  (FT/S)
SOUTHERN BUOY              62 62  230/  8/ 10 1019.6          1/ 3
WILMETTE HARBOR            64 64  130/  8/ 10   N/A           1/ 3
HARRISON CRIB              67     130/ 11/ 11   N/A
BURNHAM HARBOR             66                   N/A
CALUMET HARBOR             67      70/  7/  9 1019.1F
BURNS HARBOR               68      60/  7/  7 1020.3F
MICHIGAN CITY              67      CALM  /  1   N/A
MICHIGAN CITY 6N           66 67   CALM  /  2   N/A           1/ 4
ST. JOSEPH                 64 70  270/  8/ 10 1019.9F         2/ 4
$$

ILZ025>027-034>036-040-047-049-050-058-095>099-272000-
WEST-CENTRAL ILLINOIS

CITY           SKY/WX    TMP DP  RH WIND       PRES   REMARKS
QUINCY         SUNNY     75  50  41 SE8       30.09F
GALESBURG*     SUNNY     72  46  39 SW7       30.13S
MACOMB*        SUNNY     74  45  34 S3        30.13F
JACKSONVILLE*  SUNNY     74  47  37 NW3       30.11F
PITTSFIELD*    SUNNY     76  53  44 SE5       30.11F
$$

ILZ028>032-037-038-041>044-048-051>054-059>061-272000-
CENTRAL ILLINOIS

CITY           SKY/WX    TMP DP  RH WIND       PRES   REMARKS
PONTIAC        MOSUNNY   74  45  35 S6        30.13S
BLOOMINGTON    SUNNY     71  46  40 VRB3      30.13F
DECATUR        SUNNY     74  46  36 SE7       30.13F
PEORIA         SUNNY     74  43  32 VRB5G17   30.12F
LACON*         SUNNY     74  46  36 SW6       30.11S
LINCOLN*       SUNNY     74  46  36 S5        30.13F
SPRINGFIELD    SUNNY     78  49  35 W6        30.12F
TAYLORVILLE    SUNNY     74  47  38 SE5       30.13F
$$

ILZ033-039-045-046-055>057-062-063-272000-
EAST-CENTRAL ILLINOIS

CITY           SKY/WX    TMP DP  RH WIND       PRES   REMARKS
CHAMPAIGN      SUNNY     74  41  30 VRB3      30.14F
RANTOUL*       SUNNY     74  47  38 W3        30.13F
MATTOON        SUNNY     73  48  41 VRB3      30.13F
PARIS*         SUNNY     72  47  40 SW3       30.15S
$$

ILZ079-100>102-272000-
SOUTHWEST ILLINOIS

CITY           SKY/WX    TMP DP  RH WIND       PRES   REMARKS
ALTON          MOSUNNY   75  54  46 CALM      30.11F
BELLEVILLE     SUNNY     77  51  40 E5        30.12F
CAHOKIA*       MOSUNNY   80  50  34 SE7       30.10F HX  80
SPARTA*        SUNNY     77  51  39 E3        30.12F
$$

ILZ064>066-069>071-074>076-080>082-084>086-088>090-092>094-272000-
SOUTH-CENTRAL ILLINOIS

CITY           SKY/WX    TMP DP  RH WIND       PRES   REMARKS
CARBONDALE     SUNNY     78  53  41 NE5       30.11F
CAIRO*         SUNNY     78  55  45 SE6       30.11F
EFFINGHAM*     SUNNY     75  49  39 CALM      30.15F
MARION         MOSUNNY   79  54  41 MISG      30.13F
MT. VERNON     SUNNY     76  52  43 VRB3      30.13F
CENTRALIA*     MOSUNNY   80  54  41 SW5       30.12F HX  80
SALEM*         SUNNY     77  50  39 CALM      30.13F
METROPOLIS*    SUNNY     79  56  45 NE5       30.12F HX  80
$$

ILZ067-068-072-073-078-083-087-091-272000-
SOUTHEAST ILLINOIS

CITY           SKY/WX    TMP DP  RH WIND       PRES   REMARKS
LAWRENCEVILLE  MOSUNNY   75  48  38 CALM      30.14F
FLORA*         PTSUNNY   76  49  39 E3        30.13F
FAIRFIELD*     PTSUNNY   74  52  44 CALM      30.12F
HARRISBURG*    SUNNY     77  56  47 NE6       30.13F
ROBINSON*      SUNNY     73  48  41 CALM      30.15F
CARMI*         SUNNY     77  55  45 NE5       30.12F
$$

ABBREVIATIONS USED IN REMARKS
   TC - TEMPERATURE IN CELSIUS
  WCI - WIND CHILL INDEX
   HX - HEAT INDEX
  VSB - VISIBILITY
$$





USA.gov is the U.S. government's official web portal to all federal, state and local government web resources and services.